Total_Precipitation_Accumulation
0.03 0.07 0.07 0.07 0.05 0.10 0.37 0.47 0.74 0.75 0.42 0.29 0.11 0.07 0.10 0.07 0.05 0.02 0.01 0.00 0.00 0.00 0.00 0.00 0.00 0.00 0.00 0.00 0.00 0.00 0.00 0.00
0.05 0.07 0.09 0.07 0.08 0.18 0.39 0.47 0.60 0.31 0.09 0.04 0.05 0.10 0.11 0.07 0.02 0.00 0.00 0.00 0.00 0.00 0.00 0.00 0.00 0.00 0.00 0.00 0.00 0.00 0.00 0.00
0.02 0.04 0.03 0.04 0.11 0.36 0.43 0.23 0.14 0.03 0.02 0.01 0.03 0.07 0.07 0.03 0.00 0.00 0.00 0.00 0.00 0.00 0.00 0.00 0.00 0.00 0.00 0.00 0.00 0.00 0.00 0.00
0.03 0.03 0.03 0.01 0.02 0.18 0.18 0.06 0.05 0.03 0.02 0.02 0.03 0.09 0.12 0.05 0.01 0.00 0.00 0.00 0.00 0.00 0.00 0.00 0.00 0.00 0.00 0.00 0.00 0.00 0.00 0.00
0.00 0.00 0.00 0.01 0.06 0.25 0.11 0.10 0.10 0.09 0.08 0.06 0.06 0.13 0.13 0.12 0.08 0.03 0.02 0.01 0.00 0.00 0.00 0.00 0.00 0.00 0.00 0.00 0.00 0.00 0.00 0.00
0.00 0.00 0.00 0.02 0.07 0.20 0.15 0.12 0.20 0.14 0.22 0.25 0.18 0.21 0.20 0.11 0.04 0.03 0.03 0.03 0.01 0.00 0.00 0.00 0.00 0.00 0.00 0.00 0.00 0.00 0.00 0.00
0.00 0.00 0.01 0.03 0.11 0.17 0.29 0.31 0.21 0.19 0.32 0.36 0.20 0.17 0.14 0.10 0.06 0.03 0.02 0.02 0.02 0.01 0.00 0.00 0.00 0.00 0.00 0.00 0.00 0.00 0.00 0.00
0.00 0.02 0.04 0.04 0.08 0.13 0.18 0.32 0.41 0.26 0.23 0.19 0.12 0.11 0.12 0.09 0.06 0.07 0.06 0.05 0.04 0.02 0.00 0.00 0.00 0.00 0.00 0.01 0.00 0.00 0.01 0.00
0.00 0.01 0.02 0.05 0.11 0.08 0.06 0.29 0.41 0.47 0.29 0.13 0.09 0.06 0.04 0.03 0.03 0.06 0.04 0.03 0.01 0.00 0.00 0.00 0.00 0.01 0.01 0.01 0.01 0.02 0.01 0.00
0.00 0.00 0.01 0.04 0.07 0.05 0.09 0.09 0.25 0.37 0.21 0.07 0.03 0.02 0.04 0.06 0.08 0.05 0.04 0.03 0.01 0.00 0.00 0.01 0.02 0.01 0.00 0.02 0.02 0.01 0.01 0.01
0.00 0.00 0.00 0.01 0.01 0.01 0.06 0.04 0.02 0.09 0.15 0.10 0.03 0.04 0.06 0.07 0.08 0.10 0.08 0.04 0.01 0.00 0.01 0.02 0.01 0.02 0.03 0.02 0.01 0.00 0.00 0.00
0.00 0.00 0.00 0.00 0.00 0.00 0.00 0.00 0.01 0.01 0.01 0.02 0.05 0.09 0.11 0.13 0.13 0.14 0.10 0.04 0.01 0.01 0.01 0.01 0.01 0.01 0.00 0.01 0.02 0.00 0.01 0.01
0.00 0.00 0.00 0.00 0.00 0.00 0.01 0.03 0.03 0.04 0.05 0.08 0.12 0.14 0.16 0.12 0.10 0.08 0.06 0.03 0.02 0.01 0.01 0.01 0.00 0.00 0.01 0.02 0.01 0.01 0.01 0.01
0.00 0.00 0.00 0.00 0.00 0.02 0.09 0.08 0.12 0.13 0.15 0.14 0.12 0.09 0.08 0.08 0.08 0.05 0.03 0.02 0.01 0.01 0.00 0.00 0.01 0.00 0.01 0.02 0.01 0.02 0.04 0.01
0.00 0.00 0.00 0.00 0.04 0.11 0.08 0.10 0.12 0.18 0.13 0.09 0.06 0.05 0.04 0.04 0.03 0.02 0.02 0.01 0.01 0.00 0.00 0.00 0.00 0.01 0.01 0.03 0.06 0.11 0.02 0.00
0.00 0.00 0.00 0.01 0.05 0.05 0.04 0.06 0.06 0.09 0.06 0.05 0.05 0.04 0.03 0.02 0.01 0.01 0.00 0.00 0.00 0.00 0.00 0.00 0.00 0.01 0.05 0.13 0.15 0.05 0.00 0.00
0.00 0.00 0.01 0.01 0.01 0.02 0.03 0.03 0.02 0.01 0.01 0.00 0.01 0.01 0.01 0.00 0.00 0.00 0.00 0.00 0.00 0.00 0.01 0.02 0.03 0.11 0.16 0.10 0.03 0.01 0.00 0.00
0.00 0.00 0.00 0.00 0.00 0.00 0.00 0.00 0.00 0.00 0.00 0.00 0.00 0.01 0.01 0.00 0.00 0.00 0.00 0.00 0.01 0.04 0.08 0.12 0.21 0.16 0.04 0.03 0.01 0.00 0.00 0.00
0.00 0.00 0.00 0.00 0.00 0.00 0.00 0.00 0.00 0.00 0.00 0.00 0.00 0.01 0.00 0.00 0.00 0.01 0.02 0.06 0.10 0.16 0.20 0.16 0.06 0.02 0.04 0.03 0.01 0.00 0.00 0.00